Location: Moscow
(55.7500°N, 37.5830°E)
Time: 07:52:36
(UTC+03:00)

Transit 2A - Pass Details

Date: 07 December 2021
Orbit: 591 x 967 km, 66.7° (Epoch: 17 January)

Event Time Altitude Azimuth Distance (km) Brightness Sun altitude
Exits shadow 06:58:32 14° 319° (NW) 2,408 8.0 -13.5°
Maximum altitude 07:04:03 64° 38° (NE) 1,071 6.8 -12.8°
Drops below altitude 10° 07:10:18 10° 120° (ESE) 2,660 10.3 -12.0°
Sets 07:12:50 0° 124° (ESE) 3,570 11.4 -11.6°
